{"data":{"norad_id":55278,"epoch":"2026-09-20T17:38:45.122208Z","epoch_age_seconds":72789,"freshness":"FRESH","line1":"1 55278U 23010K   26263.73524447  .00049119  00000+0  40490-2 0  9990","line2":"2 55278  69.9942 272.5899 0004507 279.0716  80.9933 14.98768779201997","mean_motion":14.98768779,"eccentricity":0.0004507,"inclination_deg":69.9942,"raan_deg":272.5899,"arg_perigee_deg":279.0716,"mean_anomaly_deg":80.9933,"bstar":0.004049,"rev_number":20199,"period_min":96.078862875752,"perigee_km":567.5674935919,"apogee_km":573.83117466349,"semimajor_km":6948.8363341277,"source":"CELESTRAK","updated_at":"2026-09-21T09:00:33.166111Z"}}